Location: Boiro
(42.6475°N, 8.8834°W)
Time: 01:55:00
(UTC+01:00)

Tiros 1 despin weight - Pass Details

Date: 02 December 2021
Orbit: 592 x 641 km, 48.2° (Epoch: 23 January)

Event Time Altitude Azimuth Distance (km) Brightness Sun altitude
Rises 14:06:19 0° 203° (SSW) 2,830 ? 24.6°
Reaches altitude 10° 14:08:59 10° 189° (S) 1,925 ? 24.5°
Maximum altitude 14:12:25 22° 137° (SE) 1,294 ? 24.4°
Drops below altitude 10° 14:15:51 10° 86° (E) 1,921 ? 24.3°
Sets 14:18:30 0° 71° (ENE) 2,824 ? 24.2°
